Weather History for Denver, CO

Change the Weather History Date:

Wednesday, May 14, 2014

  Actual Average Record
Temperature  
Mean Temperature 45 °F 56 °F  
Max Temperature 58 °F 71 °F 87 °F (1996)
Min Temperature 32 °F 42 °F 27 °F (1912)
Degree Days  
Heating Degree Days 20 9  
Month to date heating degree days 179 156  
Since 1 July heating degree days 5909 5887  
Cooling Degree Days 0 0  
Month to date cooling degree days 5 0  
Year to date cooling degree days 5 1  
Moisture  
Dew Point 28 °F    
Average Humidity 52    
Maximum Humidity 75    
Minimum Humidity 28    
Precipitation  
Precipitation T in 0.07 in 1.08 in (1989)
Month to date precipitation 1.37 0.93  
Year to date precipitation 4.57 4.34  
Snow  
Snow 0.00 in - - ()
Month to date snowfall 0  
Since 1 July snowfall 37.3  
Snow Depth 0.00 in    
Sea Level Pressure  
Sea Level Pressure 30.34 in    
Wind  
Wind Speed 9 mph (WNW)    
Max Wind Speed 29 mph    
Max Gust Speed 38 mph    
Visibility 10 miles    
Events Rain , Thunderstorm    
T = Trace of Precipitation, MM = Missing Value Source: NWS Daily Summary

Daily Weather History Graph

Daily Weather History Graph

Search for Another Location

Airport:

Trip Planner

Search our weather history database for the weather conditions in past years. The results will help you decide how hot, cold, wet, or windy it might be!

Date:

Astronomy

May. 14, 2014 Rise Set
Actual Time 5:44 AM MDT 8:05 PM MDT
Civil Twilight 5:14 AM MDT 8:36 PM MDT
Nautical Twilight 4:36 AM MDT 9:14 PM MDT
Astronomical Twilight 3:55 AM MDT 9:55 PM MDT
Moon 8:14 PM MDT (5/14) 5:45 AM MDT (5/14)
Length of Visible Light 15h 22m
Length of Day
14h 21m
Full, 100% of the Moon is Illuminated
May 14
Full
May 14
Full
May 21
Last Quarter
May 28
New
Jun 5
First Quarter

Hourly Weather History & Observations

Time (MDT) Temp. Windchill Dew Point Humidity Pressure Visibility Wind Dir Wind Speed Gust Speed Precip Events Conditions
12:53 AM 36.0 °F 29.0 °F 27.0 °F 70% 30.42 in 10.0 mi SW 9.2 mph - N/A   Partly Cloudy
1:53 AM 33.8 °F 27.0 °F 26.6 °F 75% 30.43 in 10.0 mi WSW 8.1 mph - N/A   Scattered Clouds
2:53 AM 34.0 °F 25.5 °F 26.1 °F 73% 30.39 in 10.0 mi SW 11.5 mph - N/A   Partly Cloudy
3:53 AM 33.1 °F 24.9 °F 25.0 °F 72% 30.40 in 10.0 mi SW 10.4 mph - N/A   Clear
4:53 AM 32.0 °F 23.6 °F 25.0 °F 75% 30.39 in 10.0 mi SW 10.4 mph - N/A   Partly Cloudy
5:53 AM 33.1 °F 24.9 °F 24.1 °F 70% 30.38 in 10.0 mi SW 10.4 mph - N/A   Scattered Clouds
6:53 AM 37.0 °F 29.3 °F 25.0 °F 62% 30.38 in 10.0 mi SW 11.5 mph - N/A   Scattered Clouds
7:53 AM 42.1 °F 37.1 °F 26.1 °F 53% 30.38 in 10.0 mi WSW 8.1 mph - N/A   Scattered Clouds
9:53 AM 52.0 °F - 24.1 °F 34% 30.34 in 10.0 mi NW 9.2 mph - N/A   Scattered Clouds
10:53 AM 54.0 °F - 25.0 °F 33% 30.33 in 10.0 mi North 10.4 mph - N/A   Mostly Cloudy
11:53 AM 51.1 °F - 26.1 °F 38% 30.33 in 10.0 mi WNW 16.1 mph 26.5 mph 0.00 in Rain Light Rain
11:57 AM 50.0 °F - 26.1 °F 39% 30.39 in 10.0 mi WNW 18.4 mph 21.9 mph 0.00 in   Mostly Cloudy
12:53 PM 54.0 °F - 26.1 °F 34% 30.32 in 10.0 mi WNW 5.8 mph - 0.00 in   Mostly Cloudy
1:42 PM 54.0 °F - 28.0 °F 37% 30.35 in 10.0 mi SW 12.7 mph - N/A   Mostly Cloudy
1:53 PM 53.1 °F - 26.1 °F 35% 30.31 in 10.0 mi West 12.7 mph 18.4 mph N/A   Mostly Cloudy
2:08 PM 50.0 °F - 26.1 °F 39% 30.37 in 10.0 mi North 19.6 mph 31.1 mph 0.00 in Rain Light Rain
2:16 PM 46.9 °F - 28.9 °F 50% 30.38 in 10.0 mi NNW 23.0 mph 36.8 mph 0.00 in Rain , Thunderstorm Light Thunderstorms and Rain
2:42 PM 44.1 °F 36.2 °F 35.1 °F 71% 30.38 in 10.0 mi North 18.4 mph - 0.00 in Rain Light Rain
2:53 PM 44.6 °F 38.1 °F 33.8 °F 66% 30.37 in 7.0 mi North 13.8 mph 25.3 mph N/A Rain Light Rain
3:53 PM 54.0 °F - 28.9 °F 38% 30.28 in 10.0 mi NNW 12.7 mph 20.7 mph 0.00 in   Mostly Cloudy
4:53 PM 57.0 °F - 26.1 °F 30% 30.26 in 10.0 mi NW 12.7 mph - N/A   Mostly Cloudy
5:53 PM 57.0 °F - 25.0 °F 29% 30.24 in 10.0 mi NW 10.4 mph 18.4 mph N/A   Mostly Cloudy
6:53 PM 54.0 °F - 26.1 °F 34% 30.24 in 10.0 mi West 12.7 mph - N/A   Mostly Cloudy
7:53 PM 52.0 °F - 26.1 °F 37% 30.25 in 10.0 mi North 9.2 mph - N/A   Mostly Cloudy
8:53 PM 46.4 °F 41.9 °F 30.2 °F 53% 30.33 in 10.0 mi North 9.2 mph - N/A   Mostly Cloudy
9:53 PM 46.0 °F - 32.0 °F 58% 30.27 in 10.0 mi Calm Calm - N/A   Mostly Cloudy
10:53 PM 46.0 °F - 32.0 °F 58% 30.27 in 10.0 mi Calm Calm - N/A   Overcast
11:53 PM 45.0 °F 41.8 °F 33.1 °F 63% 30.27 in 10.0 mi SSW 5.8 mph - N/A   Overcast